Date String (YYYY-MM-DD hh:mm:ss) UTC,Instrument flags,Ambient pressure (hPa),Sample flow (lpm),Bypass flow (lpm),Sample temperature (°C),Ambient temperature (°C),ASC tube jacket temperature (°C),LED temperature (°C),Box temperature (°C),Sample RH (%),Span deviation,Mass concentration (μg/m³),Mass concentration (μg/m³),Mass concentration (μg/m³)
DateTimeUTC,F1_M11,P_M11,Q1_M11,Q2_M11,T1_M11,T2_M11,T3_M11,T4_M11,T5_M11,U1_M11,ZSPAN_M11,X0_M11,X2_M11,X1_M11
2023-01-25 22:00:00,,0827.2,5.01,0.00,21.6,19.9,00.0,30.3,23.2,10.5,0000.0,0004.79,0002.92,0002.42
2023-01-25 22:01:00,,0827.2,5.00,0.00,21.5,19.7,00.0,30.3,23.2,10.8,0000.0,0005.21,0002.89,0002.44
2023-01-25 22:02:00,,0827.2,5.00,0.00,21.5,19.6,00.0,30.3,23.1,11.0,0000.0,0004.96,0002.83,0002.44
2023-01-25 22:03:00,,0827.2,4.99,0.00,21.5,19.5,00.0,30.3,23.1,11.1,0000.0,0004.83,0002.79,0002.45
2023-01-25 22:04:00,,0827.2,4.98,0.00,21.5,19.4,00.0,30.3,23.1,11.1,0000.0,0004.73,0002.76,0002.46
2023-01-25 22:05:00,,0827.3,5.01,0.00,21.4,19.4,00.0,30.3,23.0,11.2,0000.0,0004.67,0002.76,0002.48
2023-01-25 22:06:00,,0827.2,5.01,0.00,21.4,19.3,00.0,30.3,23.0,11.2,0000.0,0004.65,0002.77,0002.49
2023-01-25 22:07:00,,0827.3,5.01,0.00,21.3,19.2,00.0,30.2,22.8,11.3,0000.0,0004.70,0002.79,0002.51
2023-01-25 22:08:00,,0827.3,4.97,0.00,21.3,19.0,00.0,30.2,22.7,11.3,0000.0,0004.77,0002.80,0002.52
2023-01-25 22:09:00,,0827.3,5.02,0.00,21.3,19.5,00.0,30.2,22.8,11.4,0000.0,0004.78,0002.79,0002.52
2023-01-25 22:10:00,,0827.3,4.98,0.00,21.4,21.0,00.0,30.2,23.1,11.2,0000.0,0004.88,0002.80,0002.54
2023-01-25 22:11:00,,0827.4,4.99,0.00,21.5,22.2,00.0,30.2,23.4,11.1,0000.0,0004.27,0002.81,0002.55
2023-01-25 22:12:00,,0827.4,5.00,0.00,21.6,22.2,00.0,30.2,23.5,11.1,0000.0,0003.76,0002.82,0002.56
2023-01-25 22:13:00,,0827.4,4.99,0.00,21.6,21.6,00.0,30.3,23.4,11.1,0000.0,0003.73,0002.80,0002.56
2023-01-25 22:14:00,,0827.4,5.00,0.00,21.6,20.9,00.0,30.3,23.3,11.3,0000.0,0003.79,0002.83,0002.56
2023-01-25 22:15:00,,0827.4,5.01,0.00,21.6,20.4,00.0,30.3,23.1,11.4,0000.0,0003.98,0002.90,0002.58
2023-01-25 22:16:00,,0827.4,5.00,0.00,21.5,20.0,00.0,30.3,23.1,11.4,0000.0,0004.07,0002.93,0002.60
2023-01-25 22:17:00,,0827.4,5.00,0.00,21.5,19.7,00.0,30.3,23.0,11.4,0000.0,0004.04,0002.92,0002.61
2023-01-25 22:18:00,,0827.4,5.00,0.00,21.4,19.6,00.0,30.3,22.9,11.4,0000.0,0003.97,0002.91,0002.61
2023-01-25 22:19:00,,0827.4,5.00,0.00,21.4,19.4,00.0,30.3,22.9,11.2,0000.0,0003.86,0002.89,0002.62
2023-01-25 22:20:00,,0827.4,4.98,0.00,21.4,19.4,00.0,30.2,22.8,11.4,0000.0,0004.00,0002.91,0002.63
2023-01-25 22:21:00,,0827.4,4.99,0.00,21.3,19.3,00.0,30.2,22.8,11.7,0000.0,0003.83,0002.89,0002.63
2023-01-25 22:22:00,,0827.4,5.01,0.00,21.3,19.2,00.0,30.2,22.8,11.6,0000.0,0003.76,0002.90,0002.63
2023-01-25 22:23:00,,0827.4,4.99,0.00,21.3,19.2,00.0,30.2,22.8,11.6,0000.0,0003.91,0002.95,0002.65
2023-01-25 22:24:00,,0827.4,4.99,0.00,21.3,19.3,00.0,30.2,22.8,11.5,0000.0,0004.07,0003.01,0002.67
2023-01-25 22:25:00,,0827.4,5.01,0.00,21.2,19.2,00.0,30.1,22.7,11.3,0000.0,0004.05,0003.02,0002.68
2023-01-25 22:26:00,,0827.5,5.00,0.00,21.2,19.1,00.0,30.1,22.7,11.3,0000.0,0003.91,0002.96,0002.68
2023-01-25 22:27:00,,0827.5,5.00,0.00,21.2,19.4,00.0,30.1,22.7,11.5,0000.0,0003.80,0002.94,0002.68
2023-01-25 22:28:00,,0827.5,4.99,0.00,21.3,20.9,00.0,30.1,23.0,11.5,0000.0,0003.78,0002.93,0002.68
2023-01-25 22:29:00,,0827.5,5.01,0.00,21.4,21.9,00.0,30.1,23.3,11.3,0000.0,0003.96,0002.98,0002.70
2023-01-25 22:30:00,,0827.5,4.98,0.00,21.5,21.6,00.0,30.1,23.4,11.2,0000.0,0004.10,0003.03,0002.71
2023-01-25 22:31:00,,0827.5,5.01,0.00,21.5,21.1,00.0,30.2,23.3,11.2,0000.0,0004.10,0003.06,0002.72
2023-01-25 22:32:00,,0827.5,5.00,0.00,21.5,20.7,00.0,30.2,23.2,11.2,0000.0,0004.18,0003.10,0002.73
2023-01-25 22:33:00,,0827.4,5.01,0.00,21.5,20.2,00.0,30.2,23.1,11.2,0000.0,0004.25,0003.14,0002.75
2023-01-25 22:34:00,,0827.5,5.00,0.00,21.4,19.9,00.0,30.2,23.0,11.4,0000.0,0004.16,0003.13,0002.77
2023-01-25 22:35:00,,0827.5,4.99,0.00,21.4,19.6,00.0,30.2,22.9,11.4,0000.0,0004.21,0003.15,0002.79
2023-01-25 22:36:00,,0827.5,5.02,0.00,21.3,19.4,00.0,30.2,22.8,11.4,0000.0,0004.61,0003.18,0002.83
2023-01-25 22:37:00,,0827.5,4.98,0.00,21.3,19.3,00.0,30.2,22.7,11.6,0000.0,0005.36,0003.21,0002.86
2023-01-25 22:38:00,,0827.6,4.99,0.00,21.2,19.2,00.0,30.1,22.7,11.6,0000.0,0005.40,0003.23,0002.89
2023-01-25 22:39:00,,0827.5,5.00,0.00,21.2,19.1,00.0,30.1,22.7,11.5,0000.0,0005.48,0003.27,0002.91
2023-01-25 22:40:00,,0827.5,4.98,0.00,21.2,19.1,00.0,30.1,22.7,11.5,0000.0,0005.44,0003.28,0002.93
2023-01-25 22:41:00,,0827.5,5.01,0.00,21.2,19.2,00.0,30.1,22.7,11.3,0000.0,0005.32,0003.26,0002.95
2023-01-25 22:42:00,,0827.5,5.01,0.00,21.2,19.2,00.0,30.0,22.8,11.5,0000.0,0005.42,0003.29,0002.99
2023-01-25 22:43:00,,0827.5,5.00,0.00,21.2,19.3,00.0,30.0,22.8,11.3,0000.0,0005.42,0003.30,0003.02
2023-01-25 22:44:00,,0827.5,4.99,0.00,21.1,19.2,00.0,30.0,22.7,11.2,0000.0,0005.49,0003.31,0003.02
2023-01-25 22:45:00,,0827.5,5.03,0.00,21.2,20.1,00.0,30.0,22.8,11.1,0000.0,0005.63,0003.32,0003.01
2023-01-25 22:46:00,,0827.6,4.99,0.00,21.3,21.5,00.0,30.0,23.1,11.0,0000.0,0005.68,0003.32,0003.00
2023-01-25 22:47:00,,0827.6,4.99,0.00,21.4,21.8,00.0,30.1,23.3,11.2,0000.0,0005.44,0003.29,0002.99
2023-01-25 22:48:00,,0827.6,4.99,0.00,21.4,21.3,00.0,30.1,23.3,11.3,0000.0,0004.59,0003.27,0002.98
2023-01-25 22:49:00,,0827.6,5.01,0.00,21.4,20.8,00.0,30.1,23.2,11.4,0000.0,0004.96,0003.29,0002.98
2023-01-25 22:50:00,,0827.7,5.00,0.00,21.4,20.5,00.0,30.1,23.2,11.6,0000.0,0005.04,0003.27,0002.98
2023-01-25 22:51:00,,0827.6,5.00,0.00,21.4,20.4,00.0,30.1,23.2,11.4,0000.0,0005.19,0003.28,0002.99
2023-01-25 22:52:00,,0827.5,5.01,0.00,21.4,20.2,00.0,30.1,23.1,11.3,0000.0,0005.24,0003.30,0003.00
2023-01-25 22:53:00,,0827.7,4.99,0.00,21.4,20.1,00.0,30.1,23.1,11.4,0000.0,0005.16,0003.30,0003.02
2023-01-25 22:54:00,,0827.7,4.98,0.00,21.4,20.0,00.0,30.2,23.1,11.5,0000.0,0005.06,0003.29,0003.03
2023-01-25 22:55:00,,0827.7,5.01,0.00,21.4,19.9,00.0,30.2,23.0,11.4,0000.0,0005.04,0003.29,0003.06
2023-01-25 22:56:00,,0827.7,5.00,0.00,21.4,19.8,00.0,30.2,23.0,11.4,0000.0,0005.45,0003.32,0003.11
2023-01-25 22:57:00,,0827.7,5.00,0.00,21.4,19.6,00.0,30.2,23.0,11.4,0000.0,0006.48,0003.35,0003.13
2023-01-25 22:58:00,,0827.7,4.99,0.00,21.3,19.6,00.0,30.2,22.9,11.7,0000.0,0006.84,0003.39,0003.16
2023-01-25 22:59:00,,0827.8,5.00,0.00,21.3,19.5,00.0,30.1,22.9,11.6,0000.0,0006.99,0003.44,0003.18
